Location: Croydon
(51.3762°N, 0.0982°W)
Time: 09:18:13
(UTC+01:00)

VELOX 1 - Pass Details

Date: 23 April 2019
Orbit: 629 x 644 km, 98.2° (Epoch: 19 May)

Event Time Altitude Azimuth Distance (km) Brightness Sun altitude
Exits shadow 01:12:12 37° 78° (ENE) 994 ? -26.2°
Maximum altitude 01:12:33 37° 66° (ENE) 983 ? -26.2°
Drops below altitude 10° 01:16:36 10° 359° (N) 2,022 ? -26.1°
Sets 01:18:55 0° 352° (N) 2,935 ? -26.1°
